{"data":{"norad_id":57072,"epoch":"2026-05-25T00:43:58.108224Z","epoch_age_seconds":75592,"freshness":"FRESH","line1":"1 57072U 23088AA  26145.03053366  .00000022  00000+0  10309-4 0  9996","line2":"2 57072  43.0032  25.1738 0000834 259.4299 100.6459 15.27575233161199","mean_motion":15.27575233,"eccentricity":8.34e-5,"inclination_deg":43.0032,"raan_deg":25.1738,"arg_perigee_deg":259.4299,"mean_anomaly_deg":100.6459,"bstar":1.0309e-5,"rev_number":16119,"period_min":94.267042885475,"perigee_km":482.49114607882,"apogee_km":483.63559430057,"semimajor_km":6861.2003701897,"source":"CELESTRAK","updated_at":"2026-05-25T13:38:18.213432Z"}}